Regional Weather Roundup
Issued by NWS Kansas City/Pleasant Hill, MO

Home | Current Version | Previous Version | Text Only | Print | Product List | Glossary On
Versions: 1 2 3 4 5 6 7 8 9 10 11 12 13 14 15 16 17 18 19 20 21 22 23 24 25 26 27 28 29 30 31 32 33 34 35 36 37 38 39 40 41 42 43 44 45 46 47 48 49 50
000
ASUS43 KEAX 230410
RWREAX

WEATHER ROUNDUP FOR EASTERN KANSAS AND NORTHWEST MISSOURI
NATIONAL WEATHER SERVICE KANSAS CITY/PLEASANT HILL MO
1100 PM CDT TUE MAY 22 2018

KSZ040-057-103>105-MOZ028-029-037-043-230500-
...KANSAS CITY METROPOLITAN AREA...

CITY           SKY/WX    TMP DP  RH WIND       PRES   REMARKS
K.C. INTL      PTCLDY    72  64  76 SE8       30.03R
K.C. DOWNTOWN  PTCLDY    79  63  57 SE6       30.01R
LEES SUMMIT    CLOUDY    73  65  75 SE6       30.04R
OLATHE - IXD   CLOUDY    73  66  78 SE6       30.04R
OLATHE - OJC   CLOUDY    71  65  81 SE6       30.04R
LAWRENCE       CLEAR     71  65  81 SE5       30.02R

$$

MOZ001>008-011>017-020>025-030>033-038>040-044>046-053-054-230500-
...NORTHERN AND CENTRAL MISSOURI...

CITY           SKY/WX    TMP DP  RH WIND       PRES   REMARKS
ST. JOSEPH     CLEAR     73  64  73 S3        30.02R
MOSBY          CLOUDY    68  63  83 CALM      30.03R
WARRENSBURG    CLOUDY    70  63  78 CALM      30.04R
WHITEMAN AFB   PTCLDY    70  63  78 SE5       30.01R
CLINTON        CLOUDY    68  64  88 CALM      30.04S
SEDALIA        PTCLDY    70  66  87 S7        30.06R
WARSAW         NOT AVBL
CHILLICOTHE      N/A     70  62  76 CALM      30.05R
KIRKSVILLE     CLEAR     67  62  84 CALM      30.07R

$$

MOZ041-047>049-056>058-063>065-088>090-097-230500-
...EASTERN AND SOUTHERN MISSOURI...

CITY           SKY/WX    TMP DP  RH WIND       PRES   REMARKS
ST. LOUIS INTL PTCLDY    76  63  64 NE7       30.06R
SPIRIT OF STL  PTCLDY    69  68  96 W3        30.05R
COLUMBIA       CLEAR     71  63  75 E6        30.06R
JEFFERSON CITY CLOUDY    70  64  81 CALM      30.04R
ROLLA          PTCLDY    69  62  78 E5        30.08R
OSAGE BEACH    CLOUDY    66  64  93 CALM      30.06R
SPRINGFIELD    PTCLDY    72  65  78 S6        30.05R
BRANSON        MOCLDY    72  66  83 S6        30.07S
JOPLIN         PTCLDY    75  66  73 S7        30.03R
WEST PLAINS    MOCLDY    73  68  84 W3        30.07F

$$

IAZ060-094-KSZ022-034>040-054-083-096-NEZ052-066-093-230500-
...KANSAS...SOUTHEAST NEBRASKA AND IOWA...

CITY           SKY/WX    TMP DP  RH WIND       PRES   REMARKS
TOPEKA         CLOUDY    73  68  84 E3        30.01R
MANHATTAN      CLEAR     71  65  81 S3        29.99R
EMPORIA        CLEAR     70  65  84 SE6       30.01R
CHANUTE        CLEAR     73  68  84 SE5       30.02R
WICHITA        PTCLDY    76  67  73 SE10      30.00R
OMAHA          PTCLDY    73  63  70 S8        29.98R
LINCOLN        MOCLDY    74  62  66 S9        29.98R
FALLS CITY     CLEAR     75  63  66 S8        30.00R
LAMONI         CLEAR     72  61  68 SE7       30.04R
DES MOINES     PTCLDY    74  63  68 E6        30.03R

$$




USA.gov is the U.S. government's official web portal to all federal, state and local government web resources and services.